User: anonymous   Login
Location: Bathurst
(33.4193°S, 149.5775°E)
Time: 17:47:39
(UTC+10:00)
Language:

Transit 4A - Orbit

View from above orbital plane
View from above orbital plane
View from above satellite
View from above satellite

Ground track
Ground track

The orbit data is extracted from the following two-line orbital elements,

1 00116U 61015A   21165.93740133 -.00000042  00000-0  27054-4 0  9995
2 00116  66.8111  42.0659 0069348 117.2835 243.5329 13.91791885 42259
Epoch (UTC): 14 June 2021 22:29:51
Eccentricity: 0.0069348
inclination: 66.8111°
perigee height: 872 km
apogee height: 973 km
right ascension of ascending node: 42.0659°
argument of perigee: 117.2835°
revolutions per day: 13.91791885
mean anomaly at epoch: 243.5329°
orbit number at epoch: 4225

The dashed part of the orbit path shows where the satellite is in the earth's shadow,  

DLR